KPAO

Details ICAO KPAO (PAO)
Name Palo Alto
Region United States
Timezone America/Los_Angeles (UTC-7.0)
Plans Departing 90
Arriving 44
Stats Elevation 4 ft / 1 m (AMSL)
Location 37.460889° -122.114823°
Runways 1
Magnetic Variation 13.347° E
Sunrise 2018-05-27 12:52:41 UTC / 2018-05-27 05:52:41 Local
Sunset 2018-05-28 03:21:31 UTC / 2018-05-27 20:21:31 Local
Advertisement - Login to hide

Runways

ID Width Length Bearing (true) Bearing (mag) Surface Threshold Offset Overrun Length
31 75 ft / 23 m 2,659 ft / 810 m 321.81° 308.46° Asphalt 213 ft / 65 m 0 ft / 0 m
XXX 75 ft / 23 m 2,659 ft / 810 m 141.80° 128.45° Asphalt 0 ft / 0 m 197 ft / 60 m

Map

Weather


0- 5 10 15 20 25 30 35+ Temperature / ° C

Clouds and Precipitation
Forecast for 2018-05-27 18:00 UTC. Updated 2 hours ago

Ground ~20,000 ft ~40,000 ft Winds

METAR

KPAO 271847Z 01008KT 10SM FEW060 19/12 A2998

TAF

Not found

Frequencies

Recorded 135.27 MHz ATIS
Tower 118.60 MHz Tower
Ground 125.00 MHz Ground
Approach 121.30 MHz NORCAL APP/DEP
Warning: Do not use this data for real-world aviation or navigation. No guarantee of current accuracy is given.